Retour au catalogue

BREEZE-M R/B

ActifMEO
NORAD 42909·ROCKET BODY·🇷🇺 Russia

Lancé Aug 16, 2017 depuis Baikonur Cosmodrome

Loading…

Prochains Passages (prochaines 24 heures)

TLE

FraisSource: Space-Track

Époque: Sep 14, 2026, 14:31 UTC

1 42909U 17046C   26257.60522136 -.00000180  00000-0  00000-0 0  9999
2 42909   8.9470  67.2355 0761570 163.5390 199.2723  0.90332667 29960

Suivez BREEZE-M R/B en temps réel avec AllMySat

Download on the App Store